330P/Catalina (2016)

Japanese version
Home page
Updated on January 17, 2017

---------------------------------------------------------------------

* Profile

Designation 330P/2015 U1
Recovery Date October 22, 2015
Magnitude 19.7 mag
Recoverer Krisztian Sarneczky (Konkoly Observatory)

* Pictures

* Orbital Elements

Epoch 2016 Sept. 9.0 TT = JDT 2457640.5
T 2016 Aug. 29.96523 TT                                 MPCW
q   2.9530181            (2000.0)            P               Q
n   0.05850549     Peri.  186.94476     -0.51578149     -0.82111729
a   6.5716080      Node   294.37544     +0.79836709     -0.35718992
e   0.5506400      Incl.   15.56478     +0.31077235     -0.44517610
P  16.85
From 191 observations 1999 Nov. 5-2016 Mar. 31, mean residual 0".6.

* Magnitudes Graph

        m1 = 11.0 + 5 log d + 10 log r

---------------------------------------------------------------------

The orbital elements are published on M.P.E.C. 2016-H35.
The magnitudes graphs are made with Comet for Windows.

---------------------------------------------------------------------

Copyright(C) Seiichi Yoshida (comet@aerith.net). All rights reserved.